DW5684 Weather Reports


Display with metric or nautical units.
time (UTC)temp
F
wind
direction
speed
MPH
gust
MPH
rain 1hr
in
rain 24hr
in
rain mn
in
humidity
%
barometer
mb
20240519044332 65 160 0.0 0.0 0.00 0.00 0.00 95 1014.9
20240519043821 65 160 0.0 0.0 0.00 0.00 0.00 94 1014.9
20240519043315 65 160 0.0 0.0 0.00 0.00 0.00 94 1014.9
20240519042829 65 160 0.0 0.0 0.00 0.00 0.00 94 1014.8
20240519042323 65 160 0.0 0.0 0.00 0.00 0.00 94 1014.8
20240519041819 66 160 0.0 0.0 0.00 0.00 0.00 93 1014.8
20240519041332 66 160 0.0 0.0 0.00 0.00 0.00 93 1014.8
20240519040822 66 160 0.0 0.0 0.00 0.00 0.00 94 1014.8
20240519040336 66 160 0.0 0.0 0.00 0.00 0.00 94 1014.8
20240519035830 66 160 0.0 0.0 0.00 0.00 0.00 93 1014.8
20240519035321 66 160 0.0 0.0 0.00 0.00 0.00 93 1014.7
20240519034833 66 160 0.0 0.0 0.00 0.00 0.00 92 1014.8
20240519034325 66 160 0.0 0.0 0.00 0.00 0.00 92 1014.8
20240519033820 66 160 0.0 0.0 0.00 0.00 0.00 92 1014.7
20240519033313 66 160 0.0 0.0 0.00 0.00 0.00 92 1014.7
20240519032832 67 160 0.0 0.0 0.00 0.00 0.00 92 1014.6
20240519032347 67 160 0.0 0.0 0.00 0.00 0.00 91 1014.6
20240519031840 67 160 0.0 0.0 0.00 0.00 0.00 91 1014.5
20240519031353 67 160 0.0 0.0 0.00 0.00 0.00 92 1014.5
20240519030846 67 160 0.0 0.0 0.00 0.00 0.00 90 1014.3
20240519030340 67 160 0.0 0.0 0.00 0.00 0.00 90 1014.3
20240519025833 67 160 0.0 0.0 0.00 0.00 0.00 90 1014.2
20240519025327 67 160 0.0 0.0 0.00 0.00 0.00 89 1014.2
20240519024815 67 160 0.0 0.0 0.00 0.00 0.00 88 1014.1
20240519024328 68 160 0.0 0.0 0.00 0.00 0.00 88 1014.0
20240519023821 68 160 0.0 0.0 0.00 0.00 0.00 87 1014.0
20240519023353 68 160 0.0 0.0 0.00 0.00 0.00 87 1013.9
20240519022829 68 160 0.0 0.0 0.00 0.00 0.00 87 1013.9
20240519022343 68 160 0.0 0.0 0.00 0.00 0.00 88 1013.9
20240519021818 68 160 0.0 0.0 0.00 0.00 0.00 86 1013.8
20240519021333 69 160 0.0 0.0 0.00 0.00 0.00 86 1013.7
20240519020826 69 160 0.0 0.0 0.00 0.00 0.00 85 1013.5
20240519020339 70 160 0.0 0.0 0.00 0.00 0.00 84 1013.4
20240519015833 70 160 0.0 0.0 0.00 0.00 0.00 84 1013.3
20240519015324 70 160 0.0 0.0 0.00 0.00 0.00 82 1013.3
20240519014821 71 160 0.0 0.0 0.00 0.00 0.00 81 1013.2
20240519014316 71 160 0.0 0.0 0.00 0.00 0.00 80 1013.2
20240519013830 72 160 0.0 0.0 0.00 0.00 0.00 80 1013.1
20240519013326 72 160 0.0 0.0 0.00 0.00 0.00 79 1013.1
20240519012840 73 160 0.0 0.0 0.00 0.00 0.00 78 1013.1
20240519012355 73 160 0.0 0.0 0.00 0.00 0.00 76 1013.1
20240519011828 74 160 0.0 0.0 0.00 0.00 0.00 77 1013.0
20240519011324 74 160 0.0 0.0 0.00 0.00 0.00 75 1013.0
20240519010821 74 160 0.0 0.0 0.00 0.00 0.00 74 1012.9
20240519010317 75 160 0.0 0.0 0.00 0.00 0.00 73 1012.8
20240519005832 75 160 0.0 0.0 0.00 0.00 0.00 72 1012.7
20240519005327 76 160 0.0 0.0 0.00 0.00 0.00 72 1012.7
20240519004822 77 160 0.0 0.0 0.00 0.00 0.00 70 1012.7
20240519004315 77 160 0.0 0.0 0.00 0.00 0.00 70 1012.6
20240519003832 78 160 0.0 0.0 0.00 0.00 0.00 66 1012.5
20240519003328 79 160 0.0 0.0 0.00 0.00 0.00 66 1012.5
20240519002824 79 160 0.0 0.0 0.00 0.00 0.00 65 1012.4
20240519002324 80 160 0.0 0.0 0.00 0.00 0.00 65 1012.4
20240519001838 81 160 0.0 0.0 0.00 0.00 0.00 61 1012.3
20240519001333 81 159 0.0 0.0 0.00 0.00 0.00 65 1012.3
20240519000828 82 159 0.0 0.0 0.00 0.00 0.00 61 1012.2
20240519000323 83 159 0.0 1.0 0.00 0.00 0.00 58 1012.1
20240518235819 83 158 0.0 2.0 0.00 0.00 0.00 56 1012.3
20240518235354 83 79 0.0 2.0 0.00 0.00 0.00 57 1012.2
20240518234828 83 53 0.0 1.0 0.00 0.00 0.00 55 1012.2
20240518234328 83 53 0.0 1.0 0.00 0.00 0.00 58 1012.1
20240518233825 83 142 0.0 1.0 0.00 0.00 0.00 56 1012.1
20240518233341 84 141 0.0 2.0 0.00 0.00 0.00 55 1012.1
20240518232834 84 219 1.0 3.0 0.00 0.00 0.00 52 1012.1
20240518232329 84 203 0.0 3.0 0.00 0.00 0.00 52 1012.2
20240518231825 84 218 0.0 1.0 0.00 0.00 0.00 51 1012.2
20240518231321 85 234 0.0 1.0 0.00 0.00 0.00 52 1012.2
20240518230817 84 311 0.0 2.0 0.00 0.00 0.00 55 1012.2
20240518230317 84 308 0.0 2.0 0.00 0.00 0.00 53 1012.2
20240518225832 85 261 0.0 1.0 0.00 0.00 0.00 49 1012.2
20240518225328 85 261 0.0 3.0 0.00 0.00 0.00 51 1012.1
20240518224823 85 212 0.0 3.0 0.00 0.00 0.00 48 1012.2
20240518224315 86 212 1.0 3.0 0.00 0.00 0.00 47 1012.2
20240518223831 87 155 0.0 3.0 0.00 0.00 0.00 48 1012.2
20240518223326 87 226 0.0 1.0 0.00 0.00 0.00 46 1012.1
20240518222822 87 152 0.0 2.0 0.00 0.00 0.00 48 1012.1
20240518222323 86 165 1.0 2.0 0.00 0.00 0.00 48 1012.2
20240518221818 86 223 0.0 2.0 0.00 0.00 0.00 50 1012.1
20240518221353 87 37 0.0 4.0 0.00 0.00 0.00 50 1012.2
20240518220828 87 263 0.0 4.0 0.00 0.00 0.00 51 1012.2
20240518220344 88 219 0.0 3.0 0.00 0.00 0.00 48 1012.3
20240518215817 87 298 0.0 1.0 0.00 0.00 0.00 47 1012.2
20240518215353 87 191 0.0 2.0 0.00 0.00 0.00 48 1012.2
20240518214848 87 85 0.0 2.0 0.00 0.00 0.00 48 1012.3
20240518214324 86 207 0.0 3.0 0.00 0.00 0.00 49 1012.3
20240518213824 86 272 0.0 3.0 0.00 0.00 0.00 50 1012.3
20240518213320 87 136 0.0 3.0 0.00 0.00 0.00 48 1012.5
20240518212813 87 293 1.0 4.0 0.00 0.00 0.00 49 1012.5
20240518212330 87 233 1.0 4.0 0.00 0.00 0.00 48 1012.6
20240518211825 88 224 1.0 3.0 0.00 0.00 0.00 49 1012.5
20240518211322 88 226 0.0 2.0 0.00 0.00 0.00 51 1012.5
20240518210818 87 185 0.0 4.0 0.00 0.00 0.00 53 1012.6
20240518210316 87 214 2.0 4.0 0.00 0.00 0.00 50 1012.7
20240518205831 87 13 0.0 3.0 0.00 0.00 0.00 55 1012.7
20240518205326 87 21 1.0 3.0 0.00 0.00 0.00 48 1012.7
20240518204823 87 216 0.0 4.0 0.00 0.00 0.00 54 1012.7
20240518204316 86 227 1.0 3.0 0.00 0.00 0.00 54 1012.7
20240518203831 86 331 1.0 3.0 0.00 0.00 0.00 52 1012.7
20240518203327 87 128 0.0 2.0 0.00 0.00 0.00 48 1012.7
20240518202823 87 157 1.0 3.0 0.00 0.00 0.00 52 1012.8
20240518202323 86 183 1.0 5.0 0.00 0.00 0.00 50 1012.9
20240518201817 87 215 1.0 5.0 0.00 0.00 0.00 51 1012.9
20240518200855 86 248 0.0 3.0 0.00 0.00 0.00 49 1012.9
20240518200330 86 230 0.0 3.0 0.00 0.00 0.00 57 1012.9
20240518195845 86 279 1.0 2.0 0.00 0.00 0.00 49 1013.0
20240518195330 86 53 1.0 2.0 0.00 0.00 0.00 50 1013.0
20240518194823 86 193 0.0 4.0 0.00 0.00 0.00 52 1013.0
20240518194337 86 141 0.0 4.0 0.00 0.00 0.00 51 1013.1
20240518193831 86 218 1.0 4.0 0.00 0.00 0.00 51 1013.0
20240518193324 85 200 1.0 5.0 0.00 0.00 0.00 53 1013.0
20240518192842 85 181 2.0 3.0 0.00 0.00 0.00 50 1013.0
20240518192316 85 242 0.0 3.0 0.00 0.00 0.00 52 1013.0
20240518191849 84 103 1.0 3.0 0.00 0.00 0.00 54 1013.0
20240518191344 84 345 0.0 2.0 0.00 0.00 0.00 55 1013.1
20240518190815 86 225 1.0 4.0 0.00 0.00 0.00 55 1013.1
20240518190330 85 227 0.0 4.0 0.00 0.00 0.00 54 1013.2
20240518185825 85 221 1.0 3.0 0.00 0.00 0.00 54 1013.2
20240518185318 85 224 0.0 2.0 0.00 0.00 0.00 58 1013.1
20240518184853 85 228 0.0 4.0 0.00 0.00 0.00 60 1013.2
20240518184325 85 162 1.0 4.0 0.00 0.00 0.00 59 1013.2
20240518183824 84 198 1.0 3.0 0.00 0.00 0.00 60 1013.3
20240518183335 83 213 1.0 3.0 0.00 0.00 0.00 53 1013.3
20240518182829 83 98 2.0 3.0 0.00 0.00 0.00 54 1013.4
20240518182321 84 276 0.0 4.0 0.00 0.00 0.00 56 1013.4
20240518181836 83 179 2.0 4.0 0.00 0.00 0.00 58 1013.4
20240518181348 83 187 1.0 4.0 0.00 0.00 0.00 58 1013.4
20240518180822 84 130 1.0 5.0 0.00 0.00 0.00 55 1013.4
20240518180332 83 219 1.0 5.0 0.00 0.00 0.00 60 1013.4
20240518175826 82 103 1.0 3.0 0.00 0.00 0.00 63 1013.4
20240518175324 83 352 1.0 2.0 0.00 0.00 0.00 59 1013.4
20240518174818 83 217 0.0 3.0 0.00 0.00 0.00 63 1013.4
20240518174332 83 158 1.0 3.0 0.00 0.00 0.00 63 1013.6
20240518173844 83 120 1.0 3.0 0.00 0.00 0.00 64 1013.5
20240518173319 83 126 0.0 3.0 0.00 0.00 0.00 65 1013.5
20240518172832 83 155 1.0 3.0 0.00 0.00 0.00 63 1013.6
20240518172324 82 274 1.0 4.0 0.00 0.00 0.00 62 1013.6
20240518171838 82 139 2.0 4.0 0.00 0.00 0.00 64 1013.7
20240518171331 82 150 0.0 2.0 0.00 0.00 0.00 65 1013.6
20240518170845 82 11 0.0 2.0 0.00 0.00 0.00 64 1013.6
20240518170324 82 178 1.0 3.0 0.00 0.00 0.00 68 1013.6
20240518165817 82 122 0.0 3.0 0.00 0.00 0.00 67 1013.5
20240518165331 81 233 0.0 3.0 0.00 0.00 0.00 71 1013.6
20240518164844 80 276 0.0 3.0 0.00 0.00 0.00 67 1013.6
20240518164317 79 340 0.0 3.0 0.00 0.00 0.00 68 1013.6
20240518163832 79 320 2.0 3.0 0.00 0.00 0.00 67 1013.6
20240518163346 80 226 1.0 4.0 0.00 0.00 0.00 65 1013.6
20240518162821 80 232 2.0 4.0 0.00 0.00 0.00 64 1013.5
20240518162339 79 5 0.0 2.0 0.00 0.00 0.00 67 1013.4
20240518161833 79 326 0.0 2.0 0.00 0.00 0.00 72 1013.3
20240518161348 79 280 0.0 2.0 0.00 0.00 0.00 69 1013.4
20240518160822 80 221 0.0 3.0 0.00 0.00 0.00 71 1013.3
20240518160317 78 205 0.0 4.0 0.00 0.00 0.00 73 1013.3
20240518155831 78 300 2.0 4.0 0.00 0.00 0.00 71 1013.2
20240518155323 78 346 0.0 2.0 0.00 0.00 0.00 69 1013.1
20240518154818 79 186 0.0 2.0 0.00 0.00 0.00 71 1013.2
20240518154315 79 143 0.0 2.0 0.00 0.00 0.00 70 1013.2
20240518153829 78 333 0.0 1.0 0.00 0.00 0.00 72 1013.2
20240518153342 78 15 0.0 2.0 0.00 0.00 0.00 71 1013.1
20240518152852 78 269 0.0 2.0 0.00 0.00 0.00 72 1013.1
20240518152324 78 347 0.0 5.0 0.00 0.00 0.00 76 1013.0
20240518151817 78 334 1.0 5.0 0.00 0.00 0.00 74 1012.9
20240518151331 77 300 0.0 3.0 0.00 0.00 0.00 74 1012.9
20240518150822 77 205 0.0 3.0 0.00 0.00 0.00 77 1012.9
20240518150317 77 204 1.0 3.0 0.00 0.00 0.00 76 1012.9
20240518145837 77 213 1.0 3.0 0.00 0.00 0.00 75 1012.9
20240518145330 77 268 0.0 3.0 0.00 0.00 0.00 77 1012.9
20240518144822 76 217 0.0 4.0 0.00 0.00 0.00 75 1012.9
20240518144315 77 224 1.0 4.0 0.00 0.00 0.00 76 1012.8
20240518143847 77 149 0.0 2.0 0.00 0.00 0.00 76 1012.8
20240518143318 76 271 0.0 2.0 0.00 0.00 0.00 76 1012.7
20240518142833 76 216 0.0 2.0 0.00 0.00 0.00 79 1012.8
20240518142348 75 225 0.0 2.0 0.00 0.00 0.00 80 1012.7
20240518141821 75 205 0.0 2.0 0.00 0.00 0.00 79 1012.7
20240518141316 75 198 1.0 2.0 0.00 0.00 0.00 79 1012.7
20240518140834 74 227 0.0 3.0 0.00 0.00 0.00 81 1012.7
20240518140327 74 148 1.0 3.0 0.00 0.00 0.00 80 1012.6
20240518135821 74 208 0.0 3.0 0.00 0.00 0.00 81 1012.5
20240518135332 73 268 0.0 4.0 0.00 0.00 0.00 81 1012.5
20240518134826 73 205 2.0 4.0 0.00 0.00 0.00 82 1012.4
20240518134320 74 222 2.0 4.0 0.00 0.00 0.00 80 1012.3
20240518133328 74 220 0.0 3.0 0.00 0.00 0.00 81 1012.1
20240518132827 73 214 0.0 4.0 0.00 0.00 0.00 82 1012.0
20240518132322 73 160 0.0 2.0 0.00 0.00 0.00 83 1012.0
20240518131833 73 210 0.0 2.0 0.00 0.00 0.00 83 1012.0
20240518131325 72 193 1.0 2.0 0.00 0.00 0.00 83 1011.9
20240518130822 72 184 1.0 2.0 0.00 0.00 0.00 83 1011.9
20240518130333 72 211 0.0 1.0 0.00 0.00 0.00 85 1011.9
20240518125826 71 196 0.0 3.0 0.00 0.00 0.00 85 1012.0
20240518125324 70 172 0.0 3.0 0.00 0.00 0.00 87 1011.9
20240518124819 69 230 0.0 2.0 0.00 0.00 0.00 88 1011.9
20240518124314 68 219 0.0 2.0 0.00 0.00 0.00 88 1011.9
20240518123848 68 206 1.0 3.0 0.00 0.00 0.00 89 1011.8
20240518123321 67 210 0.0 1.0 0.00 0.00 0.00 91 1011.7
20240518122814 66 230 0.0 2.0 0.00 0.00 0.00 93 1011.8
20240518122329 65 198 0.0 2.0 0.00 0.00 0.00 95 1011.7
20240518121824 64 217 0.0 2.0 0.00 0.00 0.00 96 1011.7
20240518121335 63 163 1.0 2.0 0.00 0.00 0.00 96 1011.6
20240518120848 63 201 0.0 3.0 0.00 0.00 0.00 96 1011.6
20240518120324 62 210 1.0 3.0 0.00 0.00 0.00 96 1011.5
20240518115817 62 212 2.0 3.0 0.00 0.00 0.00 96 1011.5
20240518115331 62 214 1.0 2.0 0.00 0.00 0.00 97 1011.5
20240518114824 62 232 1.0 2.0 0.00 0.00 0.00 97 1011.4
20240518114317 61 233 0.0 1.0 0.00 0.00 0.00 97 1011.3
20240518113831 61 233 0.0 1.0 0.00 0.00 0.00 97 1011.2
20240518113324 61 217 0.0 2.0 0.00 0.00 0.00 97 1011.2
20240518112821 61 200 0.0 2.0 0.00 0.00 0.00 97 1011.1
20240518112316 61 212 1.0 2.0 0.00 0.00 0.00 97 1011.0
20240518111850 61 224 0.0 1.0 0.00 0.00 0.00 97 1011.0
20240518111322 61 224 0.0 2.0 0.00 0.00 0.00 97 1010.9
20240518110836 61 215 0.0 2.0 0.00 0.00 0.00 97 1010.8
20240518110328 60 252 0.0 1.0 0.00 0.00 0.00 97 1010.8
20240518105824 60 252 0.0 0.0 0.00 0.00 0.00 97 1010.7
20240518105315 60 252 0.0 0.0 0.00 0.00 0.00 96 1010.7
20240518104830 59 252 0.0 0.0 0.00 0.00 0.00 96 1010.7
20240518104328 60 252 0.0 0.0 0.00 0.00 0.00 97 1010.6
20240518103818 59 252 0.0 0.0 0.00 0.00 0.00 96 1010.5
20240518103333 59 252 0.0 0.0 0.00 0.00 0.00 96 1010.5
20240518102827 60 252 0.0 0.0 0.00 0.00 0.00 96 1010.4
20240518102320 60 252 0.0 0.0 0.00 0.00 0.00 96 1010.4
20240518101815 60 252 0.0 0.0 0.00 0.00 0.00 96 1010.3
20240518101327 60 252 0.0 0.0 0.00 0.00 0.00 96 1010.2
20240518100822 61 252 0.0 0.0 0.00 0.00 0.00 96 1010.2
20240518100318 61 252 0.0 0.0 0.00 0.00 0.00 97 1010.1
20240518095832 61 252 0.0 0.0 0.00 0.00 0.00 97 1010.1
20240518095325 61 252 0.0 0.0 0.00 0.00 0.00 96 1010.0
20240518094819 61 252 0.0 0.0 0.00 0.00 0.00 97 1010.0
20240518094332 61 252 0.0 1.0 0.00 0.00 0.00 97 1010.0
20240518093824 60 211 0.0 0.0 0.00 0.00 0.00 96 1010.0
20240518093318 60 211 0.0 0.0 0.00 0.00 0.00 96 1010.0
20240518092831 60 211 0.0 0.0 0.00 0.00 0.00 96 1010.0
20240518092344 60 211 0.0 0.0 0.00 0.00 0.00 96 1010.0
20240518091818 60 211 0.0 0.0 0.00 0.00 0.00 96 1010.0
20240518091333 60 211 0.0 0.0 0.00 0.00 0.00 96 1010.0
20240518090827 60 211 0.0 0.0 0.00 0.00 0.00 96 1010.0
20240518090321 60 211 0.0 0.0 0.00 0.00 0.00 96 1009.9
20240518085835 60 211 0.0 0.0 0.00 0.00 0.00 96 1009.9
20240518085327 60 211 0.0 0.0 0.00 0.00 0.00 96 1009.8
20240518084822 60 211 0.0 0.0 0.00 0.00 0.00 95 1009.8
20240518084339 60 211 0.0 0.0 0.00 0.00 0.00 95 1009.8
20240518083831 60 211 0.0 0.0 0.00 0.00 0.00 95 1009.8
20240518083319 60 211 0.0 0.0 0.00 0.00 0.00 95 1009.7
20240518082814 61 211 0.0 0.0 0.00 0.00 0.00 95 1009.8
20240518082350 61 211 0.0 0.0 0.00 0.00 0.00 96 1009.8
20240518081822 61 211 0.0 0.0 0.00 0.00 0.00 95 1009.8
20240518081316 61 211 0.0 0.0 0.00 0.00 0.00 95 1009.8
20240518080831 61 211 0.0 0.0 0.00 0.00 0.00 95 1009.8
20240518080326 61 211 0.0 0.0 0.00 0.00 0.00 95 1009.7
20240518075840 61 211 0.0 0.0 0.00 0.00 0.00 95 1009.7
20240518075318 62 211 0.0 0.0 0.00 0.00 0.00 95 1009.7
20240518074831 62 211 0.0 0.0 0.00 0.00 0.00 95 1009.7
20240518074324 62 211 0.0 0.0 0.00 0.00 0.00 95 1009.6
20240518073818 62 211 0.0 0.0 0.00 0.00 0.00 94 1009.7
20240518073333 62 211 0.0 0.0 0.00 0.00 0.00 94 1009.7
20240518072826 62 211 0.0 0.0 0.00 0.00 0.00 95 1009.6
20240518072334 62 211 0.0 0.0 0.00 0.00 0.00 95 1009.6
20240518071848 62 211 0.0 1.0 0.00 0.00 0.00 94 1009.7
20240518071323 62 211 0.0 1.0 0.00 0.00 0.00 94 1009.7
20240518070819 62 210 0.0 1.0 0.00 0.00 0.00 94 1009.7
20240518070332 62 213 0.0 0.0 0.00 0.00 0.00 94 1009.7
20240518065821 62 213 0.0 0.0 0.00 0.00 0.00 93 1009.7
20240518065315 63 213 0.0 0.0 0.00 0.00 0.00 93 1009.7
20240518064828 63 213 0.0 0.0 0.00 0.00 0.00 93 1009.8
20240518064323 63 213 0.0 0.0 0.00 0.00 0.00 93 1009.8
20240518063821 63 213 0.0 1.0 0.00 0.00 0.00 93 1009.8
20240518063315 63 214 0.0 1.0 0.00 0.00 0.00 93 1009.8
20240518062828 63 212 0.0 0.0 0.00 0.00 0.00 92 1009.9
20240518062322 64 212 0.0 0.0 0.00 0.00 0.00 92 1009.8
20240518061818 64 212 0.0 0.0 0.00 0.00 0.00 92 1009.8
20240518061329 64 212 0.0 1.0 0.00 0.00 0.00 91 1009.7
20240518060823 64 212 0.0 1.0 0.00 0.00 0.00 92 1009.8
20240518060318 64 253 0.0 1.0 0.00 0.00 0.00 92 1009.8
20240518055813 64 206 0.0 0.0 0.00 0.00 0.00 92 1009.8
20240518055328 64 204 0.0 0.0 0.00 0.00 0.00 92 1009.8
20240518054821 64 188 0.0 1.0 0.00 0.00 0.00 91 1009.8
20240518054316 65 168 0.0 1.0 0.00 0.00 0.00 90 1009.9
20240518053830 65 222 0.0 1.0 0.00 0.00 0.00 90 1009.8
20240518053325 65 222 0.0 1.0 0.00 0.00 0.00 89 1009.8
20240518052819 65 222 0.0 1.0 0.00 0.00 0.00 90 1009.8
20240518052317 65 223 0.0 2.0 0.00 0.00 0.00 90 1009.7
20240518051831 65 181 1.0 2.0 0.00 0.00 0.00 90 1009.7
20240518051325 65 154 0.0 1.0 0.00 0.00 0.00 90 1009.7
20240518050838 65 193 0.0 0.0 0.00 0.00 0.00 90 1009.6
20240518050331 65 192 0.0 0.0 0.00 0.00 0.00 90 1009.6
20240518045825 65 191 0.0 2.0 0.00 0.00 0.00 90 1009.7
20240518045316 65 217 0.0 2.0 0.00 0.00 0.00 90 1009.7
20240518044831 65 160 0.0 0.0 0.00 0.00 0.00 90 1009.7